QPF
0.06 0.06 0.07 0.07 0.08 0.08 0.07 0.08 0.06 0.06 0.07 0.06 0.03 0.02 0.02 0.02 0.02 0.02 0.02 0.04 0.04 0.04 0.05 0.06 0.06 0.06 0.07 0.08 0.09 0.09 0.11 0.12 0.13 0.12 0.12 0.11 0.11 0.10 0.09 0.09 0.10 0.10 0.08
0.07 0.08 0.08 0.10 0.08 0.06 0.07 0.08 0.08 0.09 0.10 0.08 0.04 0.03 0.04 0.04 0.03 0.05 0.08 0.11 0.07 0.04 0.04 0.05 0.06 0.06 0.07 0.09 0.10 0.10 0.10 0.12 0.14 0.13 0.12 0.11 0.10 0.11 0.10 0.09 0.09 0.10 0.10
0.08 0.09 0.10 0.09 0.09 0.08 0.10 0.10 0.10 0.10 0.09 0.09 0.08 0.07 0.06 0.06 0.04 0.05 0.06 0.08 0.08 0.07 0.05 0.05 0.05 0.06 0.08 0.10 0.10 0.10 0.10 0.10 0.11 0.12 0.12 0.11 0.11 0.11 0.12 0.11 0.09 0.09 0.09
0.07 0.08 0.07 0.08 0.10 0.10 0.10 0.10 0.12 0.12 0.12 0.13 0.12 0.09 0.06 0.06 0.05 0.05 0.06 0.07 0.08 0.08 0.09 0.08 0.07 0.06 0.07 0.08 0.10 0.11 0.11 0.10 0.08 0.10 0.12 0.13 0.13 0.13 0.13 0.12 0.11 0.09 0.08
0.06 0.08 0.08 0.09 0.09 0.08 0.10 0.09 0.12 0.13 0.14 0.14 0.13 0.11 0.08 0.08 0.08 0.06 0.05 0.06 0.08 0.08 0.10 0.11 0.11 0.09 0.07 0.07 0.10 0.12 0.12 0.12 0.11 0.12 0.13 0.15 0.16 0.14 0.13 0.12 0.11 0.10 0.09
0.04 0.06 0.06 0.06 0.07 0.08 0.09 0.10 0.12 0.12 0.11 0.12 0.11 0.10 0.11 0.09 0.11 0.10 0.08 0.08 0.09 0.08 0.09 0.10 0.12 0.09 0.08 0.08 0.09 0.11 0.13 0.15 0.14 0.13 0.14 0.15 0.18 0.19 0.15 0.13 0.12 0.11 0.10
0.05 0.06 0.06 0.08 0.09 0.10 0.11 0.12 0.12 0.11 0.11 0.14 0.14 0.12 0.10 0.11 0.11 0.12 0.11 0.11 0.10 0.09 0.09 0.11 0.11 0.10 0.10 0.09 0.09 0.09 0.12 0.13 0.14 0.15 0.16 0.15 0.16 0.17 0.17 0.15 0.11 0.10 0.09
0.07 0.07 0.08 0.09 0.09 0.09 0.09 0.11 0.12 0.10 0.10 0.14 0.13 0.12 0.11 0.12 0.12 0.10 0.11 0.11 0.11 0.11 0.11 0.12 0.12 0.12 0.12 0.13 0.12 0.11 0.12 0.13 0.14 0.14 0.14 0.12 0.12 0.12 0.13 0.12 0.11 0.09 0.07
0.04 0.05 0.06 0.07 0.07 0.07 0.07 0.08 0.09 0.09 0.08 0.11 0.13 0.14 0.13 0.11 0.11 0.10 0.10 0.08 0.09 0.11 0.13 0.15 0.14 0.12 0.11 0.12 0.14 0.14 0.13 0.12 0.12 0.12 0.12 0.11 0.10 0.09 0.10 0.10 0.10 0.09 0.08
0.03 0.03 0.03 0.04 0.04 0.04 0.05 0.05 0.06 0.07 0.09 0.09 0.10 0.13 0.14 0.15 0.15 0.13 0.10 0.10 0.11 0.11 0.12 0.13 0.12 0.11 0.10 0.10 0.13 0.16 0.12 0.11 0.10 0.09 0.09 0.10 0.10 0.09 0.09 0.09 0.09 0.08 0.08
0.02 0.02 0.02 0.02 0.03 0.04 0.03 0.04 0.04 0.06 0.07 0.07 0.08 0.10 0.11 0.13 0.16 0.16 0.12 0.11 0.12 0.10 0.08 0.09 0.11 0.10 0.09 0.09 0.11 0.14 0.13 0.11 0.11 0.07 0.06 0.06 0.07 0.08 0.08 0.08 0.10 0.10 0.10
0.03 0.03 0.03 0.02 0.02 0.03 0.03 0.03 0.04 0.05 0.06 0.07 0.09 0.11 0.14 0.13 0.13 0.15 0.14 0.14 0.14 0.10 0.08 0.06 0.07 0.08 0.07 0.08 0.08 0.09 0.08 0.07 0.08 0.06 0.04 0.05 0.05 0.06 0.07 0.06 0.08 0.08 0.09
0.03 0.03 0.02 0.02 0.03 0.02 0.03 0.04 0.04 0.05 0.05 0.06 0.07 0.09 0.10 0.10 0.12 0.14 0.14 0.14 0.13 0.11 0.09 0.07 0.06 0.08 0.07 0.09 0.09 0.08 0.07 0.05 0.05 0.04 0.03 0.03 0.04 0.05 0.06 0.06 0.06 0.08 0.08
0.01 0.01 0.01 0.01 0.01 0.02 0.03 0.03 0.04 0.05 0.05 0.06 0.07 0.08 0.08 0.08 0.10 0.12 0.13 0.13 0.13 0.12 0.10 0.09 0.09 0.09 0.08 0.09 0.08 0.07 0.08 0.06 0.04 0.03 0.03 0.03 0.04 0.04 0.04 0.05 0.05 0.06 0.07
0.01 0.01 0.00 0.00 0.01 0.01 0.02 0.02 0.03 0.04 0.04 0.05 0.06 0.07 0.07 0.07 0.07 0.08 0.10 0.11 0.12 0.12 0.11 0.10 0.10 0.08 0.08 0.08 0.07 0.07 0.07 0.06 0.04 0.04 0.04 0.04 0.03 0.03 0.04 0.05 0.06 0.05 0.06
0.01 0.01 0.01 0.01 0.01 0.01 0.01 0.02 0.03 0.03 0.03 0.03 0.03 0.04 0.04 0.05 0.05 0.06 0.07 0.07 0.09 0.10 0.10 0.09 0.07 0.05 0.05 0.05 0.04 0.06 0.07 0.05 0.04 0.05 0.05 0.03 0.03 0.03 0.04 0.06 0.06 0.06 0.05
0.01 0.01 0.01 0.01 0.01 0.01 0.02 0.03 0.02 0.02 0.02 0.02 0.02 0.02 0.02 0.04 0.06 0.05 0.05 0.06 0.07 0.09 0.10 0.08 0.06 0.06 0.06 0.06 0.06 0.07 0.07 0.07 0.08 0.08 0.05 0.03 0.03 0.03 0.04 0.05 0.06 0.06 0.04
0.02 0.02 0.01 0.01 0.01 0.02 0.02 0.02 0.02 0.01 0.01 0.02 0.02 0.03 0.03 0.04 0.06 0.06 0.05 0.05 0.06 0.08 0.11 0.10 0.08 0.08 0.07 0.07 0.07 0.08 0.06 0.05 0.07 0.05 0.04 0.03 0.02 0.03 0.03 0.04 0.05 0.05 0.04
0.03 0.02 0.02 0.01 0.01 0.02 0.01 0.01 0.01 0.01 0.02 0.02 0.02 0.03 0.04 0.04 0.06 0.07 0.06 0.05 0.05 0.06 0.09 0.11 0.07 0.06 0.05 0.04 0.05 0.05 0.05 0.06 0.04 0.03 0.03 0.02 0.02 0.02 0.03 0.04 0.04 0.05 0.05
0.02 0.02 0.03 0.02 0.01 0.01 0.01 0.00 0.00 0.01 0.01 0.01 0.02 0.03 0.04 0.04 0.06 0.07 0.06 0.06 0.05 0.06 0.07 0.09 0.09 0.08 0.06 0.05 0.05 0.06 0.06 0.06 0.05 0.03 0.02 0.02 0.02 0.02 0.03 0.04 0.05 0.06 0.05
0.02 0.03 0.03 0.01 0.01 0.01 0.00 0.00 0.00 0.01 0.01 0.01 0.02 0.02 0.03 0.02 0.04 0.07 0.08 0.06 0.06 0.06 0.06 0.07 0.09 0.09 0.07 0.06 0.06 0.06 0.06 0.06 0.05 0.04 0.03 0.03 0.03 0.02 0.02 0.04 0.05 0.08 0.08
0.03 0.03 0.02 0.02 0.01 0.01 0.00 0.00 0.00 0.01 0.01 0.02 0.03 0.03 0.03 0.02 0.02 0.05 0.05 0.06 0.05 0.05 0.05 0.05 0.06 0.07 0.07 0.06 0.06 0.06 0.05 0.05 0.05 0.04 0.04 0.03 0.04 0.04 0.04 0.04 0.04 0.05 0.07
0.03 0.03 0.02 0.02 0.02 0.02 0.01 0.00 0.00 0.01 0.03 0.03 0.03 0.04 0.03 0.02 0.02 0.04 0.07 0.06 0.07 0.05 0.04 0.04 0.05 0.07 0.07 0.08 0.07 0.06 0.06 0.07 0.06 0.04 0.03 0.03 0.03 0.04 0.04 0.04 0.03 0.03 0.04
0.03 0.02 0.01 0.02 0.02 0.02 0.02 0.01 0.00 0.02 0.03 0.03 0.04 0.05 0.05 0.05 0.04 0.03 0.07 0.10 0.09 0.07 0.05 0.04 0.05 0.05 0.05 0.06 0.07 0.06 0.06 0.05 0.05 0.05 0.05 0.05 0.04 0.03 0.03 0.04 0.04 0.03 0.03
0.03 0.02 0.02 0.03 0.04 0.04 0.03 0.01 0.00 0.01 0.03 0.03 0.04 0.04 0.04 0.04 0.03 0.03 0.06 0.10 0.09 0.09 0.06 0.04 0.03 0.03 0.02 0.02 0.03 0.04 0.04 0.05 0.05 0.05 0.05 0.06 0.06 0.06 0.05 0.06 0.06 0.04 0.03
0.03 0.02 0.02 0.03 0.04 0.05 0.03 0.02 0.01 0.01 0.01 0.02 0.04 0.05 0.04 0.03 0.03 0.04 0.07 0.10 0.09 0.08 0.07 0.06 0.06 0.06 0.05 0.04 0.03 0.04 0.06 0.06 0.07 0.07 0.07 0.07 0.06 0.06 0.05 0.05 0.06 0.05 0.05
MSLP
1010.56 1010.68 1010.76 1010.80 1010.84 1010.91 1011.01 1011.14 1011.28 1011.42 1011.52 1011.56 1011.53 1011.43 1011.28 1011.11 1010.95 1010.85 1010.82 1010.88 1011.05 1011.31 1011.65 1012.05 1012.50 1012.95 1013.41 1013.83 1014.23 1014.59 1014.91 1015.22 1015.53 1015.84 1016.16 1016.51 1016.87 1017.24 1017.59 1017.91 1018.20 1018.44 1018.65
1010.30 1010.45 1010.53 1010.59 1010.65 1010.72 1010.83 1010.96 1011.11 1011.26 1011.38 1011.44 1011.43 1011.34 1011.20 1011.02 1010.84 1010.69 1010.61 1010.62 1010.72 1010.93 1011.23 1011.59 1012.01 1012.44 1012.86 1013.26 1013.63 1013.97 1014.28 1014.57 1014.87 1015.19 1015.53 1015.89 1016.27 1016.65 1017.02 1017.36 1017.67 1017.93 1018.16
1010.16 1010.30 1010.40 1010.47 1010.54 1010.63 1010.73 1010.87 1011.02 1011.17 1011.29 1011.36 1011.37 1011.30 1011.16 1010.98 1010.78 1010.60 1010.47 1010.42 1010.46 1010.60 1010.84 1011.15 1011.51 1011.89 1012.28 1012.64 1012.98 1013.29 1013.59 1013.87 1014.17 1014.48 1014.83 1015.20 1015.60 1015.99 1016.38 1016.73 1017.06 1017.35 1017.60
1010.04 1010.17 1010.28 1010.36 1010.43 1010.52 1010.62 1010.75 1010.89 1011.02 1011.13 1011.20 1011.21 1011.15 1011.03 1010.86 1010.66 1010.47 1010.31 1010.22 1010.21 1010.29 1010.46 1010.70 1011.00 1011.33 1011.66 1011.99 1012.30 1012.59 1012.87 1013.15 1013.45 1013.78 1014.13 1014.51 1014.91 1015.31 1015.70 1016.07 1016.41 1016.72 1017.00
1009.88 1009.99 1010.09 1010.17 1010.25 1010.33 1010.42 1010.52 1010.62 1010.72 1010.80 1010.85 1010.86 1010.81 1010.72 1010.58 1010.41 1010.23 1010.08 1009.98 1009.94 1009.97 1010.09 1010.26 1010.50 1010.77 1011.05 1011.34 1011.63 1011.91 1012.19 1012.48 1012.80 1013.13 1013.50 1013.88 1014.28 1014.67 1015.06 1015.42 1015.76 1016.08 1016.38
1009.63 1009.71 1009.80 1009.88 1009.96 1010.03 1010.09 1010.15 1010.20 1010.24 1010.28 1010.30 1010.29 1010.26 1010.20 1010.11 1009.99 1009.87 1009.76 1009.68 1009.64 1009.65 1009.72 1009.85 1010.03 1010.25 1010.49 1010.75 1011.03 1011.31 1011.61 1011.92 1012.25 1012.61 1012.98 1013.36 1013.74 1014.12 1014.48 1014.82 1015.15 1015.46 1015.76
1009.30 1009.36 1009.44 1009.53 1009.60 1009.65 1009.68 1009.68 1009.67 1009.65 1009.62 1009.59 1009.57 1009.56 1009.54 1009.51 1009.47 1009.43 1009.39 1009.36 1009.34 1009.36 1009.41 1009.50 1009.64 1009.81 1010.03 1010.27 1010.54 1010.84 1011.16 1011.50 1011.86 1012.23 1012.61 1012.98 1013.33 1013.68 1014.00 1014.30 1014.59 1014.88 1015.16
1008.95 1009.00 1009.08 1009.16 1009.24 1009.27 1009.27 1009.22 1009.14 1009.04 1008.95 1008.88 1008.84 1008.83 1008.85 1008.90 1008.95 1009.00 1009.04 1009.07 1009.10 1009.13 1009.18 1009.25 1009.35 1009.50 1009.69 1009.93 1010.21 1010.53 1010.87 1011.24 1011.62 1012.00 1012.37 1012.72 1013.04 1013.33 1013.60 1013.84 1014.08 1014.32 1014.58
1008.67 1008.71 1008.80 1008.89 1008.96 1008.98 1008.95 1008.85 1008.71 1008.55 1008.40 1008.28 1008.22 1008.23 1008.29 1008.39 1008.52 1008.66 1008.78 1008.88 1008.95 1009.01 1009.05 1009.11 1009.19 1009.32 1009.49 1009.73 1010.01 1010.35 1010.72 1011.10 1011.49 1011.87 1012.22 1012.53 1012.80 1013.03 1013.24 1013.42 1013.60 1013.79 1014.00
1008.53 1008.57 1008.66 1008.76 1008.83 1008.85 1008.79 1008.66 1008.48 1008.27 1008.08 1007.93 1007.85 1007.86 1007.95 1008.10 1008.29 1008.49 1008.67 1008.81 1008.92 1008.99 1009.03 1009.08 1009.14 1009.24 1009.40 1009.63 1009.91 1010.25 1010.62 1011.01 1011.39 1011.75 1012.07 1012.33 1012.55 1012.73 1012.87 1013.00 1013.12 1013.26 1013.42
1008.57 1008.61 1008.69 1008.79 1008.86 1008.87 1008.80 1008.66 1008.45 1008.22 1008.00 1007.83 1007.75 1007.75 1007.85 1008.03 1008.25 1008.48 1008.69 1008.86 1008.98 1009.04 1009.08 1009.10 1009.14 1009.22 1009.36 1009.56 1009.83 1010.15 1010.51 1010.88 1011.23 1011.55 1011.83 1012.05 1012.21 1012.34 1012.44 1012.52 1012.61 1012.71 1012.83
1008.75 1008.77 1008.84 1008.92 1008.98 1008.99 1008.92 1008.77 1008.57 1008.34 1008.12 1007.95 1007.86 1007.87 1007.96 1008.14 1008.36 1008.59 1008.80 1008.96 1009.06 1009.12 1009.13 1009.13 1009.14 1009.19 1009.29 1009.47 1009.70 1009.99 1010.30 1010.62 1010.93 1011.20 1011.43 1011.60 1011.73 1011.83 1011.90 1011.97 1012.04 1012.13 1012.23
1009.01 1009.00 1009.03 1009.09 1009.13 1009.12 1009.05 1008.92 1008.74 1008.53 1008.33 1008.17 1008.09 1008.09 1008.18 1008.33 1008.53 1008.73 1008.91 1009.04 1009.12 1009.14 1009.13 1009.09 1009.07 1009.09 1009.15 1009.28 1009.46 1009.69 1009.95 1010.20 1010.45 1010.66 1010.84 1010.97 1011.08 1011.17 1011.24 1011.32 1011.41 1011.51 1011.62
1009.26 1009.20 1009.19 1009.20 1009.21 1009.19 1009.12 1009.01 1008.86 1008.68 1008.52 1008.39 1008.32 1008.32 1008.39 1008.51 1008.66 1008.82 1008.95 1009.04 1009.08 1009.07 1009.02 1008.96 1008.91 1008.88 1008.91 1008.98 1009.10 1009.25 1009.43 1009.61 1009.79 1009.94 1010.07 1010.18 1010.28 1010.37 1010.47 1010.59 1010.71 1010.84 1010.97
1009.43 1009.31 1009.24 1009.20 1009.18 1009.14 1009.08 1008.99 1008.87 1008.74 1008.62 1008.52 1008.47 1008.46 1008.51 1008.59 1008.69 1008.80 1008.88 1008.92 1008.92 1008.88 1008.81 1008.72 1008.64 1008.58 1008.56 1008.57 1008.62 1008.70 1008.79 1008.89 1008.99 1009.08 1009.17 1009.26 1009.36 1009.47 1009.61 1009.77 1009.94 1010.10 1010.25
1009.48 1009.32 1009.20 1009.11 1009.04 1008.99 1008.93 1008.86 1008.78 1008.69 1008.61 1008.54 1008.49 1008.48 1008.50 1008.54 1008.60 1008.65 1008.68 1008.69 1008.66 1008.60 1008.51 1008.41 1008.31 1008.22 1008.15 1008.11 1008.08 1008.08 1008.08 1008.10 1008.12 1008.16 1008.20 1008.28 1008.38 1008.51 1008.68 1008.87 1009.07 1009.26 1009.43
1009.45 1009.25 1009.09 1008.97 1008.87 1008.80 1008.75 1008.70 1008.64 1008.58 1008.52 1008.47 1008.42 1008.39 1008.38 1008.39 1008.40 1008.40 1008.40 1008.38 1008.33 1008.26 1008.17 1008.07 1007.95 1007.84 1007.73 1007.63 1007.54 1007.46 1007.38 1007.32 1007.27 1007.25 1007.26 1007.30 1007.40 1007.53 1007.70 1007.90 1008.10 1008.28 1008.44
1009.38 1009.18 1009.00 1008.85 1008.75 1008.67 1008.61 1008.57 1008.53 1008.48 1008.43 1008.37 1008.32 1008.26 1008.21 1008.17 1008.14 1008.11 1008.08 1008.04 1007.99 1007.92 1007.84 1007.73 1007.62 1007.49 1007.34 1007.20 1007.04 1006.89 1006.74 1006.61 1006.49 1006.41 1006.38 1006.39 1006.45 1006.55 1006.69 1006.85 1007.01 1007.15 1007.25
1009.35 1009.16 1008.98 1008.84 1008.73 1008.65 1008.59 1008.54 1008.50 1008.45 1008.39 1008.31 1008.22 1008.13 1008.04 1007.96 1007.88 1007.82 1007.77 1007.72 1007.67 1007.61 1007.54 1007.44 1007.32 1007.18 1007.01 1006.82 1006.61 1006.40 1006.19 1005.99 1005.82 1005.68 1005.59 1005.55 1005.55 1005.59 1005.66 1005.74 1005.81 1005.85 1005.87
1009.39 1009.22 1009.07 1008.94 1008.83 1008.75 1008.69 1008.63 1008.57 1008.50 1008.41 1008.30 1008.17 1008.03 1007.89 1007.75 1007.64 1007.55 1007.48 1007.42 1007.38 1007.33 1007.27 1007.18 1007.06 1006.91 1006.71 1006.49 1006.24 1005.98 1005.71 1005.46 1005.24 1005.05 1004.90 1004.79 1004.72 1004.67 1004.64 1004.60 1004.54 1004.45 1004.34
1009.50 1009.37 1009.24 1009.12 1009.02 1008.94 1008.87 1008.80 1008.71 1008.60 1008.47 1008.31 1008.12 1007.93 1007.74 1007.56 1007.41 1007.28 1007.20 1007.13 1007.09 1007.05 1007.00 1006.92 1006.80 1006.64 1006.43 1006.18 1005.90 1005.60 1005.29 1005.00 1004.73 1004.50 1004.29 1004.11 1003.95 1003.80 1003.64 1003.46 1003.26 1003.02 1002.78
1009.65 1009.54 1009.43 1009.32 1009.23 1009.14 1009.05 1008.95 1008.83 1008.69 1008.50 1008.29 1008.05 1007.80 1007.56 1007.33 1007.14 1006.99 1006.88 1006.81 1006.76 1006.72 1006.67 1006.60 1006.48 1006.32 1006.10 1005.83 1005.53 1005.21 1004.89 1004.57 1004.27 1003.99 1003.73 1003.49 1003.24 1002.99 1002.71 1002.39 1002.05 1001.68 1001.30
1009.78 1009.67 1009.57 1009.46 1009.35 1009.25 1009.14 1009.02 1008.86 1008.68 1008.45 1008.19 1007.90 1007.60 1007.30 1007.03 1006.80 1006.62 1006.48 1006.40 1006.34 1006.30 1006.26 1006.18 1006.07 1005.90 1005.68 1005.42 1005.11 1004.78 1004.44 1004.11 1003.79 1003.49 1003.19 1002.90 1002.59 1002.25 1001.88 1001.45 1000.99 1000.51 1000.03
1009.84 1009.71 1009.59 1009.46 1009.34 1009.22 1009.09 1008.93 1008.76 1008.54 1008.27 1007.97 1007.64 1007.30 1006.96 1006.64 1006.37 1006.15 1005.99 1005.88 1005.81 1005.76 1005.71 1005.64 1005.53 1005.37 1005.16 1004.89 1004.59 1004.27 1003.93 1003.59 1003.27 1002.96 1002.64 1002.32 1001.98 1001.59 1001.16 1000.67 1000.14 999.60 999.06
1009.79 1009.63 1009.47 1009.32 1009.17 1009.03 1008.88 1008.71 1008.51 1008.27 1007.99 1007.66 1007.29 1006.91 1006.53 1006.18 1005.86 1005.60 1005.40 1005.26 1005.16 1005.10 1005.04 1004.97 1004.86 1004.71 1004.50 1004.25 1003.97 1003.65 1003.32 1003.00 1002.68 1002.36 1002.05 1001.73 1001.38 1000.99 1000.55 1000.05 999.51 998.95 998.41
1009.64 1009.44 1009.25 1009.07 1008.90 1008.74 1008.57 1008.40 1008.19 1007.94 1007.64 1007.30 1006.91 1006.50 1006.08 1005.67 1005.31 1005.00 1004.75 1004.57 1004.44 1004.34 1004.26 1004.18 1004.08 1003.93 1003.74 1003.50 1003.23 1002.93 1002.61 1002.30 1001.99 1001.69 1001.39 1001.09 1000.76 1000.40 999.99 999.53 999.04 998.52 998.02
Thickness
5731 5730 5727 5724 5722 5720 5720 5718 5716 5715 5714 5713 5713 5712 5711 5710 5710 5709 5708 5707 5707 5706 5704 5703 5702 5701 5701 5700 5700 5700 5699 5699 5698 5698 5698 5698 5698 5698 5698 5698 5698 5698 5697
5726 5724 5722 5720 5718 5716 5715 5713 5712 5710 5708 5707 5707 5706 5706 5706 5705 5704 5702 5700 5700 5700 5700 5699 5699 5698 5698 5697 5697 5697 5696 5696 5695 5695 5695 5695 5695 5695 5695 5695 5695 5695 5695
5721 5719 5716 5714 5713 5711 5710 5709 5706 5705 5703 5702 5701 5700 5700 5699 5699 5699 5697 5695 5695 5695 5695 5695 5694 5694 5693 5693 5693 5693 5693 5692 5692 5692 5691 5691 5692 5692 5692 5692 5692 5692 5692
5716 5714 5712 5710 5708 5706 5705 5702 5700 5698 5696 5694 5693 5693 5693 5693 5693 5693 5692 5691 5691 5691 5690 5690 5689 5689 5688 5688 5689 5689 5689 5689 5688 5688 5689 5688 5688 5689 5689 5689 5689 5689 5689
5712 5710 5707 5705 5704 5702 5699 5697 5695 5691 5689 5688 5687 5687 5687 5686 5686 5686 5686 5685 5685 5686 5685 5684 5683 5683 5683 5684 5684 5684 5685 5685 5685 5685 5685 5685 5685 5685 5685 5686 5686 5686 5686
5708 5705 5703 5701 5699 5696 5693 5691 5688 5686 5684 5683 5682 5682 5681 5681 5681 5680 5680 5680 5680 5680 5679 5679 5678 5677 5678 5679 5679 5679 5680 5681 5681 5681 5681 5681 5681 5681 5681 5682 5682 5683 5683
5702 5700 5698 5695 5693 5690 5687 5685 5682 5680 5679 5678 5674 5672 5675 5676 5675 5675 5674 5673 5673 5673 5673 5673 5673 5673 5673 5674 5674 5675 5675 5676 5677 5677 5676 5676 5677 5677 5677 5678 5678 5679 5679
5697 5696 5692 5689 5687 5684 5682 5679 5677 5674 5673 5672 5667 5663 5662 5664 5667 5668 5667 5666 5666 5667 5666 5667 5666 5666 5667 5668 5669 5670 5670 5671 5671 5671 5671 5671 5671 5672 5673 5673 5674 5675 5676
5693 5690 5688 5684 5681 5679 5676 5674 5672 5669 5665 5665 5663 5656 5651 5651 5655 5658 5659 5659 5658 5658 5659 5661 5661 5660 5662 5663 5663 5663 5664 5665 5666 5666 5666 5666 5666 5667 5668 5669 5670 5671 5671
5688 5685 5682 5679 5676 5673 5671 5669 5667 5664 5660 5657 5656 5654 5650 5647 5643 5644 5649 5650 5651 5652 5653 5654 5655 5655 5657 5657 5657 5658 5659 5659 5660 5660 5661 5661 5661 5662 5663 5664 5665 5666 5667
5683 5680 5676 5673 5670 5668 5665 5663 5661 5658 5655 5651 5648 5646 5645 5643 5640 5635 5636 5640 5643 5645 5647 5648 5649 5650 5651 5651 5651 5652 5653 5653 5654 5654 5655 5655 5656 5658 5658 5659 5660 5662 5663
5677 5674 5672 5668 5665 5663 5661 5658 5656 5653 5650 5646 5643 5641 5638 5635 5633 5631 5629 5631 5634 5638 5641 5642 5643 5644 5646 5645 5645 5647 5647 5647 5647 5648 5648 5649 5650 5651 5653 5654 5656 5657 5659
5670 5668 5666 5663 5660 5658 5656 5654 5652 5649 5646 5642 5638 5636 5634 5631 5629 5627 5625 5625 5627 5630 5634 5636 5637 5639 5640 5640 5640 5640 5641 5641 5641 5642 5642 5643 5644 5646 5647 5649 5651 5652 5654
5666 5663 5661 5659 5656 5654 5652 5649 5647 5645 5642 5638 5635 5632 5629 5627 5625 5623 5621 5619 5619 5622 5625 5628 5632 5634 5634 5635 5635 5634 5635 5635 5636 5636 5637 5638 5639 5640 5642 5644 5645 5647 5649
5662 5659 5657 5654 5652 5650 5647 5645 5642 5640 5637 5633 5630 5628 5625 5624 5622 5620 5618 5616 5613 5613 5617 5622 5624 5627 5628 5629 5629 5629 5629 5630 5631 5631 5632 5633 5634 5635 5637 5638 5640 5641 5643
5657 5655 5653 5650 5648 5646 5643 5640 5637 5635 5632 5629 5627 5624 5621 5620 5618 5617 5615 5614 5612 5611 5611 5616 5618 5621 5622 5623 5624 5624 5624 5625 5625 5626 5627 5628 5630 5631 5632 5633 5634 5635 5637
5653 5651 5649 5646 5644 5642 5639 5636 5633 5630 5628 5625 5623 5620 5617 5616 5614 5613 5612 5611 5610 5609 5607 5611 5613 5616 5616 5617 5618 5618 5619 5619 5620 5621 5622 5624 5625 5626 5627 5627 5628 5629 5630
5649 5647 5645 5642 5641 5638 5635 5632 5629 5626 5623 5620 5618 5616 5613 5612 5610 5608 5607 5607 5607 5606 5605 5605 5607 5609 5610 5611 5612 5612 5613 5615 5616 5617 5618 5618 5619 5620 5620 5621 5622 5623 5624
5645 5643 5642 5639 5637 5634 5630 5627 5624 5621 5619 5617 5615 5613 5610 5608 5605 5604 5603 5603 5602 5603 5602 5601 5602 5604 5605 5606 5606 5607 5608 5608 5610 5612 5612 5612 5612 5613 5614 5615 5616 5617 5618
5642 5640 5638 5635 5633 5629 5626 5622 5619 5617 5615 5613 5612 5610 5607 5605 5602 5600 5599 5598 5598 5598 5598 5597 5597 5599 5599 5601 5600 5599 5599 5601 5602 5606 5606 5606 5606 5607 5608 5609 5610 5611 5612
5640 5637 5634 5631 5629 5625 5621 5617 5614 5613 5611 5609 5609 5607 5605 5603 5600 5597 5595 5594 5594 5593 5593 5592 5592 5593 5593 5593 5593 5593 5593 5594 5596 5598 5599 5600 5601 5601 5602 5603 5604 5605 5607
5636 5633 5630 5627 5624 5622 5616 5613 5610 5609 5608 5606 5605 5604 5602 5601 5598 5595 5592 5591 5590 5589 5588 5588 5587 5586 5587 5588 5588 5588 5587 5586 5587 5592 5592 5593 5595 5596 5598 5599 5600 5601 5602
5632 5629 5627 5624 5621 5618 5614 5611 5607 5605 5605 5604 5602 5600 5599 5599 5595 5592 5591 5590 5589 5587 5585 5583 5583 5583 5583 5584 5584 5583 5582 5581 5583 5586 5586 5587 5591 5591 5595 5597 5597 5597 5597
5629 5627 5625 5622 5619 5616 5611 5609 5606 5605 5604 5603 5601 5599 5596 5594 5591 5587 5587 5587 5586 5586 5584 5582 5581 5581 5582 5582 5580 5579 5579 5579 5581 5582 5583 5582 5586 5587 5591 5592 5593 5593 5593
5626 5625 5624 5621 5618 5614 5610 5607 5602 5602 5601 5600 5599 5597 5594 5590 5586 5583 5582 5581 5581 5581 5581 5580 5578 5578 5578 5577 5575 5573 5573 5573 5574 5577 5579 5578 5581 5583 5585 5587 5588 5588 5588
5626 5624 5622 5620 5617 5613 5609 5605 5600 5599 5597 5596 5595 5593 5590 5586 5582 5578 5576 5574 5574 5575 5575 5574 5574 5574 5574 5574 5573 5570 5570 5568 5569 5571 5575 5574 5576 5577 5578 5582 5583 5582 5582